EW7060 Weather Reports


time (UTC)temp
C
wind
direction
speed
KPH
gust
KPH
rain 1hr
cm
rain 24hr
cm
rain mn
cm
humidity
%
barometer
mb
20260507225520 15 219 1.6 9.7 0.00 0.23 0.03 59 1010.7
20260507224605 15 225 1.6 4.8 0.00 0.23 0.03 56 1010.7
20260507223520 16 236 1.6 3.2 0.00 0.23 0.03 54 1010.5
20260507222545 16 225 0.0 3.2 0.00 0.23 0.03 52 1010.4
20260507221520 16 229 1.6 6.4 0.00 0.23 0.03 50 1010.3
20260507220545 17 179 1.6 6.4 0.00 0.23 0.03 49 1010.2
20260507215520 17 255 1.6 4.8 0.00 0.23 0.03 48 1010.4
20260507214544 18 164 1.6 6.4 0.00 0.23 0.03 47 1010.3
20260507213520 18 317 3.2 11.3 0.00 0.23 0.03 45 1010.4
20260507212544 19 240 3.2 8.0 0.00 0.23 0.03 43 1010.4
20260507211522 19 231 1.6 6.4 0.00 0.23 0.03 43 1010.3
20260507210545 18 279 1.6 8.0 0.00 0.23 0.03 45 1010.3
20260507205520 18 217 1.6 11.3 0.00 0.23 0.03 43 1010.3
20260507204605 18 194 1.6 8.0 0.00 0.23 0.03 43 1010.3
20260507203601 19 302 3.2 12.9 0.00 0.23 0.03 42 1010.1
20260507202544 19 181 1.6 8.0 0.00 0.23 0.03 45 1010.3
20260507201520 18 186 1.6 6.4 0.00 0.23 0.03 45 1010.4
20260507200544 18 90 3.2 6.4 0.00 0.23 0.03 44 1010.4
20260507195520 18 141 3.2 8.0 0.00 0.23 0.03 47 1010.6
20260507194544 17 179 3.2 9.7 0.00 0.23 0.03 49 1010.7
20260507193519 17 173 1.6 6.4 0.00 0.23 0.03 44 1010.8
20260507192545 17 68 1.6 4.8 0.00 0.23 0.03 40 1010.8
20260507191540 17 70 1.6 3.2 0.00 0.23 0.03 39 1010.9
20260507190545 17 45 1.6 4.8 0.00 0.23 0.03 38 1011.1
20260507185600 19 54 3.2 8.0 0.00 0.23 0.03 33 1011.2
20260507184544 20 35 3.2 6.4 0.00 0.23 0.03 33 1011.2
20260507183520 20 68 3.2 6.4 0.00 0.23 0.03 34 1011.1
20260507182544 20 60 1.6 4.8 0.00 0.23 0.03 34 1011.3
20260507181520 20 5 1.6 4.8 0.00 0.23 0.03 35 1011.4
20260507180544 -17 0.0 0.0 0.00 0.23 0.03 1011.5
20260507175520 18 100 3.2 6.4 0.00 0.23 0.03 37 1011.7
20260507174544 17 106 3.2 8.0 0.00 0.23 0.03 38 1011.8
20260507173519 18 20 4.8 8.0 0.00 0.23 0.03 42 1011.9
20260507172544 17 227 1.6 6.4 0.00 0.23 0.03 42 1012.2
20260507171520 17 20 3.2 6.4 0.00 0.23 0.03 41 1012.4
20260507170604 17 114 1.6 8.0 0.00 0.23 0.03 41 1012.7
20260507165520 16 144 3.2 3.2 0.00 0.23 0.03 45 1012.8
20260507164544 16 225 1.6 3.2 0.00 0.23 0.03 46 1012.9
20260507163540 -17 0.0 0.0 0.00 0.23 0.03 1013.3
20260507162545 15 61 1.6 3.2 0.00 0.23 0.03 44 1013.3
20260507161520 16 180 1.6 4.8 0.00 0.23 0.03 48 1013.3
20260507160543 14 45 0.0 3.2 0.00 0.23 0.03 48 1013.5
20260507155520 13 45 0.0 3.2 0.00 0.23 0.03 52 1013.6
20260507154544 13 64 1.6 3.2 0.00 0.23 0.03 53 1013.6
20260507153519 13 72 1.6 3.2 0.00 0.23 0.03 53 1013.7
20260507152544 13 24 1.6 6.4 0.00 0.23 0.03 54 1013.9
20260507151520 13 344 1.6 4.8 0.00 0.30 0.03 53 1014.0
20260507150544 12 45 1.6 8.0 0.00 0.30 0.03 53 1014.1
20260507145540 12 159 1.6 6.4 0.00 0.30 0.03 56 1014.2
20260507144544 12 241 0.0 3.2 0.00 0.30 0.03 59 1014.3
20260507143520 12 135 0.0 3.2 0.00 0.30 0.03 67 1014.4
20260507142544 12 90 0.0 0.0 0.00 0.30 0.03 70 1014.4
20260507141539 12 90 0.0 0.0 0.00 0.30 0.03 70 1014.5
20260507140544 11 90 0.0 0.0 0.00 0.33 0.03 69 1014.6
20260507135520 11 90 0.0 0.0 0.00 0.36 0.03 70 1014.6
20260507134544 11 45 0.0 3.2 0.00 0.38 0.03 69 1014.8
20260507133520 11 45 0.0 3.2 0.00 0.38 0.03 68 1015.0
20260507132543 11 338 0.0 3.2 0.00 0.43 0.03 70 1015.0
20260507131519 11 45 0.0 0.0 0.00 0.46 0.03 70 1014.9
20260507130543 11 45 0.0 1.6 0.00 0.46 0.03 67 1014.8
20260507125520 11 52 1.6 3.2 0.00 0.56 0.03 70 1014.7
20260507124545 11 45 0.0 3.2 0.00 0.56 0.03 75 1014.7
20260507123519 11 90 0.0 0.0 0.00 0.56 0.03 79 1014.8
20260507122605 11 90 0.0 0.0 0.00 0.56 0.03 78 1014.8
20260507121520 11 45 0.0 0.0 0.00 0.56 0.03 79 1014.7
20260507120604 11 45 0.0 0.0 0.00 0.56 0.03 77 1014.7
20260507115520 11 90 0.0 3.2 0.00 0.56 0.03 77 1014.7
20260507114544 11 72 1.6 3.2 0.00 0.56 0.03 79 1014.6
20260507113519 11 45 0.0 0.0 0.00 0.56 0.03 81 1014.2
20260507112543 11 45 0.0 0.0 0.00 0.56 0.03 84 1014.2
20260507111519 11 90 0.0 1.6 0.00 0.56 0.03 87 1014.0
20260507110544 11 45 0.0 0.0 0.00 0.56 0.03 88 1014.0
20260507105519 11 0 0.0 0.0 0.00 0.56 0.03 89 1014.2
20260507104620 11 0 0.0 0.0 0.00 0.56 0.03 90 1014.0
20260507103520 11 0 0.0 0.0 0.00 0.56 0.03 90 1013.8
20260507102544 11 0 0.0 0.0 0.00 0.56 0.03 90 1013.9
20260507101601 11 0 0.0 0.0 0.00 0.56 0.03 90 1013.8
20260507100545 -17 0.0 0.0 0.00 0.56 0.03 1013.7
20260507095520 11 45 0.0 0.0 0.00 0.56 0.03 89 1013.6
20260507094543 11 315 0.0 1.6 0.00 0.56 0.03 89 1013.5
20260507093539 11 0 0.0 1.6 0.00 0.56 0.03 89 1013.7
20260507092543 11 315 0.0 1.6 0.00 0.56 0.03 90 1013.4
20260507091519 11 315 0.0 3.2 0.00 0.56 0.03 89 1013.1
20260507090544 11 315 0.0 0.0 0.00 0.56 0.03 89 1013.1
20260507085539 11 315 0.0 0.0 0.00 0.56 0.03 89 1013.2
20260507084544 11 315 0.0 0.0 0.00 0.56 0.03 89 1013.3
20260507083542 11 0 0.0 1.6 0.00 0.56 0.03 88 1013.3
20260507082605 11 225 0.0 0.0 0.00 0.56 0.03 87 1013.2
20260507081539 11 90 0.0 1.6 0.00 0.56 0.03 87 1013.2
20260507080543 -17 0.0 0.0 0.00 0.56 0.03 1013.1
20260507075519 11 135 0.0 3.2 0.00 0.56 0.03 87 1012.8
20260507074605 11 103 1.6 3.2 0.00 0.56 0.03 87 1012.4
20260507073520 11 329 1.6 3.2 0.00 0.56 0.03 87 1012.6
20260507072543 11 90 0.0 3.2 0.00 0.56 0.03 86 1012.6
20260507071519 11 105 1.6 3.2 0.00 0.56 0.03 87 1012.4
20260507070604 11 108 0.0 3.2 0.00 0.56 0.03 88 1012.6
20260507065519 11 62 1.6 4.8 0.00 0.56 0.03 89 1012.6
20260507064543 11 48 1.6 4.8 0.00 0.56 0.03 90 1012.4
20260507063520 12 83 1.6 8.0 0.00 0.56 0.03 90 1012.6
20260507062543 12 126 1.6 6.4 0.00 0.56 0.03 90 1012.8
20260507061520 12 138 1.6 4.8 0.00 0.56 0.03 90 1012.9
20260507060543 -17 0.0 0.0 0.03 0.56 0.03 1012.8
20260507055519 12 338 1.6 3.2 0.03 0.56 0.03 90 1012.7
20260507054603 12 90 0.0 3.2 0.03 0.56 0.03 90 1012.7
20260507053520 12 0 0.0 3.2 0.03 0.56 0.03 90 1012.8
20260507052604 12 360 1.6 4.8 0.03 0.56 0.03 91 1012.6
20260507051519 12 54 3.2 6.4 0.03 0.56 0.03 93 1012.7
20260507050543 12 55 1.6 4.8 0.00 0.53 0.00 94 1012.8
20260507045519 13 19 1.6 3.2 0.00 0.53 0.00 94 1012.3
20260507044543 13 10 0.0 3.2 0.00 0.53 0.00 93 1012.6
20260507043559 13 180 0.0 3.2 0.00 0.53 0.00 93 1013.1
20260507042600 13 345 0.0 3.2 0.00 0.53 0.00 92 1012.2
20260507041520 14 225 1.6 3.2 0.00 0.53 0.00 90 1012.7
20260507040542 -17 0.0 0.0 0.03 0.53 0.00 1012.8
20260507035559 15 90 0.0 3.2 0.03 0.53 0.53 89 1012.7
20260507034543 15 353 0.0 3.2 0.03 0.53 0.53 87 1012.2
20260507033519 15 0 0.0 0.0 0.03 0.53 0.53 87 1012.0
20260507032544 15 124 1.6 3.2 0.03 0.53 0.53 88 1012.0
20260507031520 15 113 1.6 3.2 0.03 0.53 0.53 88 1012.0
20260507030543 15 164 1.6 4.8 0.00 0.51 0.51 87 1012.1
20260507025519 15 158 0.0 3.2 0.00 0.51 0.51 86 1012.1
20260507024544 16 152 1.6 4.8 0.00 0.51 0.51 82 1011.4
20260507023539 16 111 3.2 11.3 0.00 0.51 0.51 81 1011.3
20260507022543 16 108 3.2 11.3 0.00 0.51 0.51 82 1011.7
20260507021520 16 105 3.2 8.0 0.00 0.51 0.51 85 1011.4
20260507020543 16 98 3.2 8.0 0.00 0.51 0.51 89 1011.4
20260507015519 16 158 1.6 8.0 0.00 0.51 0.51 91 1011.2
20260507014543 16 135 1.6 6.4 0.00 0.51 0.51 92 1011.3
20260507013539 16 135 0.0 3.2 0.00 0.51 0.51 92 1011.2
20260507012543 17 0 0.0 3.2 0.00 0.51 0.51 91 1011.3
20260507011520 17 122 1.6 3.2 0.00 0.51 0.51 90 1011.8
20260507010605 17 135 1.6 4.8 0.00 0.51 0.51 91 1011.7
20260507005519 17 90 1.6 3.2 0.00 0.51 0.51 91 1011.5
20260507004543 17 90 0.0 3.2 0.00 0.51 0.51 91 1011.5
20260507003520 18 45 1.6 3.2 0.00 0.51 0.51 93 1011.2
20260507002543 18 180 0.0 3.2 0.00 0.51 0.51 93 1011.4
20260507001520 18 270 0.0 4.8 0.18 0.51 0.51 92 1011.3
20260507000543 18 45 0.0 3.2 0.18 0.51 0.51 92 1010.9
20260506235520 18 225 0.0 3.2 0.18 0.51 0.51 91 1010.9
20260506234543 18 315 0.0 3.2 0.18 0.51 0.51 90 1010.8
20260506233519 18 198 1.6 6.4 0.18 0.51 0.51 87 1010.9
20260506232543 19 315 0.0 1.6 0.18 0.51 0.51 85 1010.6
20260506231519 -17 0.0 0.0 0.00 0.33 0.33 1010.4
20260506230559 -17 0.0 0.0 0.00 0.33 0.33 1010.1